SCP
0 0 0 0 0 0 0 0 0 0 0 0 0 0 0 0 0 0 0 0 0 0 0 0 0 0 0 0 0 0 0 0 0 0 0 0 0 0 0 0 0 0 0
0 0 0 0 0 0 0 0 0 0 0 0 0 0 0 0 0 0 0 0 0 0 0 0 0 0 0 0 0 0 0 0 0 0 0 0 0 0 0 0 0 0 0
0 0 0 0 0 0 0 0 0 0 0 0 0 0 0 0 0 0 0 0 0 0 0 0 0 0 0 0 0 0 0 0 0 0 0 0 0 0 0 0 0 0 0
0 0 0 0 0 0 0 0 0 0 0 0 0 0 0 0 0 0 0 0 0 0 0 0 0 0 0 0 0 0 0 0 0 0 0 0 0 0 0 0 0 0 0
0 0 0 0 0 0 0 0 0 0 0 0 0 0 0 0 0 0 0 0 0 0 0 0 0 0 0 0 0 0 0 0 0 0 0 0 0 0 0 0 0 0 0
0 0 0 0 0 0 0 0 0 0 0 0 0 0 0 0 0 0 0 0 0 0 0 0 0 0 0 0 0 0 0 0 0 0 0 0 0 0 0 0 0 0 0
0 0 0 0 0 0 0 0 0 0 0 0 0 0 0 0 0 0 0 0 0 0 0 0 0 0 0 0 0 0 0 0 0 0 0 0 0 0 0 0 0 0 0
0 0 0 0 0 0 0 0 0 0 0 0 0 0 0 0 0 0 0 0 0 0 0 0 0 0 0 0 0 0 0 0 0 0 0 0 0 0 0 0 0 0 0
0 0 0 0 0 0 0 0 0 0 0 0 0 0 0 0 0 0 0 0 0 0 0 0 0 0 0 0 0 0 0 0 0 0 0 0 0 0 0 0 0 0 0
0 0 0 0 0 0 0 0 0 0 0 0 0 0 0 0 0 0 0 0 0 0 0 0 0 0 0 0 0 0 0 0 0 0 0 0 0 0 0 0 0 0 0
0 0 0 0 0 0 0 0 0 0 0 0 0 0 0 0 0 0 0 0 0 0 0 0 0 0 0 0 0 0 0 0 0 0 0 0 0 0 0 0 0 0 0
0 0 0 0 0 0 0 0 0 0 0 0 0 0 0 0 0 0 0 0 0 0 0 0 0 0 0 0 0 0 0 0 0 0 0 0 0 0 0 0 0 0 0
0 0 0 0 0 0 0 0 0 0 0 0 0 0 0 0 0 0 0 0 0 0 0 0 0 0 0 0 0 0 0 0 0 0 0 0 0 0 0 0 0 0 0
0 0 0 0 0 0 0 0 0 0 0 0 0 0 0 0 0 0 0 0 0 0 0 0 0 0 0 0 0 0 0 0 0 0 0 0 0 0 0 0 0 0 0
0 0 0 0 0 0 0 0 0 0 0 0 0 0 0 0 0 0 0 0 0 0 0 0 0 0 0 0 0 0 0 0 0 0 0 0 0 0 0 0 0 0 0
0 0 0 0 0 0 0 0 0 0 0 0 0 0 0 0 0 0 0 0 0 0 0 0 0 0 0 0 0 0 0 0 0 0 0 0 0 0 0 0 0 0 0
0 0 0 0 0 0 0 0 0 0 0 0 0 0 0 0 0 0 0 0 0 0 0 0 0 0 0 0 0 0 0 0 0 0 0 0 0 0 0 0 0 0 0
0 0 0 0 0 0 0 0 0 0 0 0 0 0 0 0 0 0 0 0 0 0 0 0 0 0 0 0 0 0 0 0 0 0 0 0 0 0 0 0 0 0 0
0 0 0 0 0 0 0 0 0 0 0 0 0 0 0 0 0 0 0 0 0 0 0 0 0 0 0 0 0 0 0 0 0 0 0 0 0 0 0 0 0 0 0
0 0 0 0 0 0 0 0 0 0 0 0 0 0 0 0 0 0 0 0 0 0 0 0 0 0 0 0 0 0 0 0 0 0 0 0 0 0 0 0 0 0 0
0 0 0 0 0 0 0 0 0 0 0 0 0 0 0 0 0 0 0 0 0 0 0 0 0 0 0 0 0 0 0 0 0 0 0 0 0 0 0 0 0 0 0
0 0 0 0 0 0 0 0 0 0 0 0 0 0 0 0 0 0 0 0 0 0 0 0 0 0 0 0 0 0 0 0 0 0 0 0 0 0 0 0 0 0 0
0 0 0 0 0 0 0 0 0 0 0 0 0 0 0 0 0 0 0 0 0 0 0 0 0 0 0 0 0 0 0 0 0 0 0 0 0 0 0 0 0 0 0
0 0 0 0 0 0 0 0 0 0 0 0 0 0 0 0 0 0 0 0 0 0 0 0 0 0 0 0 0 0 0 0 0 0 0 0 0 0 0 0 0 0 0
0 0 0 0 0 0 0 0 0 0 0 0 0 0 0 0 0 0 0 0 0 0 0 0 0 0 0 0 0 0 0 0 0 0 0 0 0 0 0 0 0 0 0
0 0 0 0 0 0 0 0 0 0 0 0 0 0 0 0 0 0 0 0 0 0 0 0 0 0 0 0 0 0 0 0 0 0 0 0 0 0 0 0 0 0 0
Wind_Speed_500mb
60 60 75 87 92 101 107 115 119 117 113 117 106 99 89 89 88 87 87 85 84 79 74 72 72 68 70 65 64 64 61 56 54 55 53 51 48 45 43 42 49 51 41
69 59 63 73 80 92 98 104 110 112 110 112 107 99 91 90 90 91 88 86 83 81 75 72 72 69 70 67 66 66 62 57 57 56 55 54 47 49 47 38 40 45 45
75 64 63 68 77 86 92 95 100 107 107 107 107 99 93 93 93 92 90 87 83 77 73 72 72 70 71 70 68 68 59 60 57 56 57 57 54 49 42 41 40 35 44
63 68 67 67 72 79 86 90 95 100 105 106 108 100 95 94 94 93 91 87 81 76 72 70 72 74 77 72 66 68 61 63 58 56 59 51 47 42 40 36 37 37 40
68 69 72 68 68 72 75 84 87 95 103 104 104 100 95 98 96 95 92 87 82 78 75 75 73 75 72 69 65 67 64 63 59 57 55 48 43 43 40 36 35 35 34
71 71 75 69 68 72 73 74 83 89 95 97 103 99 97 99 97 93 89 88 81 79 79 77 74 69 70 69 71 68 63 62 57 58 51 51 42 39 35 35 32 29 31
77 70 69 72 67 72 74 76 75 90 89 95 102 99 95 97 93 89 88 87 82 78 76 76 75 70 68 69 69 66 57 52 48 44 41 41 41 39 35 34 33 32 34
82 73 63 70 69 66 73 80 75 78 90 87 93 91 90 91 91 91 89 84 82 80 79 75 73 69 68 62 53 54 51 46 43 40 43 39 36 34 34 33 32 32 33
82 76 67 67 72 65 65 76 82 72 77 87 84 80 84 81 82 84 86 84 87 83 75 70 65 58 50 51 52 52 49 46 46 40 38 36 36 37 36 37 35 34 35
74 79 77 69 68 67 61 63 73 76 72 79 84 80 76 78 80 92 86 92 84 76 72 64 55 50 48 49 49 44 42 42 39 39 44 43 43 42 37 35 35 37 37
80 75 81 75 70 66 59 57 63 68 69 80 84 85 82 81 90 85 89 80 75 71 74 64 58 53 49 48 44 42 41 44 45 47 46 45 44 40 37 37 40 40 41
91 79 77 74 72 66 57 56 61 66 66 71 81 87 86 82 76 76 69 62 63 70 65 59 56 52 48 48 47 45 44 46 43 46 46 45 42 39 40 42 44 44 44
90 89 72 68 71 65 59 58 62 68 68 77 88 86 78 72 69 65 60 61 61 57 52 51 51 50 49 47 43 39 43 44 41 42 43 43 42 41 41 43 45 45 43
96 90 75 63 68 67 63 59 67 72 76 83 83 81 72 69 70 72 70 67 59 56 56 53 50 49 46 41 42 44 41 37 38 41 43 43 42 39 39 42 43 43 41
95 87 77 67 66 69 66 66 71 76 75 82 81 73 69 71 74 72 71 68 64 60 56 55 54 50 43 44 43 39 38 38 37 38 39 38 37 35 37 38 39 38 36
93 88 79 70 71 72 74 74 76 72 66 67 70 72 70 69 70 64 61 55 53 50 54 56 52 46 43 41 40 38 34 33 32 32 33 34 33 30 35 37 37 36 36
88 82 81 72 81 80 83 85 87 71 58 56 54 57 56 58 63 61 56 55 50 53 53 49 44 43 41 40 36 32 30 30 29 30 32 33 32 30 32 36 36 35 35
81 72 81 77 86 85 88 91 95 93 84 75 63 62 60 58 63 60 61 56 59 54 46 44 43 40 38 37 33 30 28 28 30 32 32 30 29 31 33 33 33 33 34
72 70 79 81 84 92 90 99 93 84 90 86 79 68 65 62 60 59 56 55 58 54 48 45 41 37 33 31 28 25 25 28 30 30 30 30 32 32 32 33 34 36 36
62 68 77 82 84 94 99 101 90 85 84 85 87 86 81 76 72 67 60 53 51 47 47 43 38 36 33 28 22 21 24 30 32 33 33 32 33 33 35 36 36 36 36
59 67 73 80 83 90 97 98 93 90 88 85 83 83 82 82 78 68 63 55 50 46 40 36 34 31 20 18 24 31 33 34 34 35 36 35 34 34 34 34 32 32 32
59 65 70 78 84 89 92 90 91 90 89 83 80 79 74 69 65 63 56 52 47 39 32 26 20 18 20 27 29 30 31 32 33 33 33 31 31 31 31 31 30 31 32
59 65 70 77 82 86 84 84 84 84 83 86 84 76 68 64 59 55 54 47 39 31 25 20 23 26 27 27 26 27 28 29 29 29 30 30 30 29 28 30 31 30 31
57 64 71 74 78 81 85 86 85 84 82 78 74 71 65 60 58 51 44 39 30 23 26 28 27 25 24 22 23 24 26 28 29 28 29 29 29 28 28 29 30 30 29
53 62 68 71 74 76 75 74 76 77 76 71 67 66 61 55 52 42 32 27 28 29 27 25 22 20 19 21 23 25 27 27 28 29 29 29 28 28 29 29 29 28 28
54 60 63 65 69 74 79 84 80 73 69 65 61 56 48 41 35 31 32 31 27 25 23 20 19 20 20 23 23 24 26 27 28 29 28 28 27 28 28 27 28 28 26
Wind_Direction_500mb
311 293 270 263 261 256 249 246 250 253 251 250 249 244 237 236 236 233 230 232 234 235 235 232 235 240 248 251 252 254 255 258 258 265 268 269 267 268 260 264 257 252 251
323 301 284 268 261 257 250 244 247 251 250 249 249 244 238 235 235 232 229 229 231 231 230 230 237 238 247 249 249 252 254 259 258 259 261 267 268 265 258 262 252 252 248
320 316 298 277 264 257 257 249 246 248 248 246 245 242 236 233 234 231 228 228 230 229 228 233 236 241 243 248 253 257 256 248 252 251 262 261 259 257 246 257 248 254 254
312 311 304 291 274 265 261 258 251 246 246 245 244 240 234 232 232 230 227 225 224 226 230 232 238 242 245 252 249 253 250 246 248 252 262 251 253 246 245 240 243 254 260
308 304 305 298 280 268 260 257 251 245 244 244 243 239 233 231 231 228 225 224 221 224 228 233 241 241 245 247 247 245 244 247 248 249 251 239 242 248 241 251 253 252 252
306 302 305 297 283 266 255 248 248 244 243 242 240 236 232 230 230 229 225 220 222 226 229 234 238 239 243 244 241 241 243 248 246 244 240 233 244 242 246 253 249 244 260
303 298 298 299 283 270 258 246 245 243 241 242 241 238 231 228 228 226 222 221 225 228 232 235 240 239 239 239 236 242 236 230 232 238 236 240 244 246 247 242 244 255 266
301 300 293 295 284 272 259 248 245 242 242 243 246 243 231 228 225 223 220 223 226 227 231 234 243 243 239 237 219 216 217 220 224 232 233 235 243 242 237 243 251 260 269
303 304 291 289 285 269 261 250 245 241 242 241 241 236 232 227 225 224 220 226 220 225 226 228 237 231 221 210 210 212 220 224 224 227 237 240 238 235 238 247 252 261 271
313 297 302 288 279 267 260 248 246 245 241 242 238 227 229 225 226 221 222 218 219 222 217 223 217 213 214 214 209 212 215 218 226 239 238 233 232 235 242 251 261 266 274
312 294 295 292 275 264 256 245 239 240 236 239 233 223 216 221 221 219 220 219 221 224 219 212 204 207 206 202 201 211 220 227 229 230 229 230 234 240 249 259 267 272 277
315 293 293 288 273 260 250 244 232 225 222 223 226 214 206 208 211 214 215 220 215 217 211 203 202 200 200 205 209 213 220 224 223 226 229 234 242 249 257 264 270 274 278
307 299 291 286 269 255 246 237 227 219 215 213 209 208 201 196 198 203 209 203 204 206 204 199 196 199 201 205 208 214 219 222 223 229 236 242 248 256 263 268 272 275 277
302 298 286 278 260 247 239 232 227 218 209 204 201 197 198 199 200 200 196 197 195 189 190 192 196 199 202 205 212 213 216 221 227 235 241 248 253 260 267 270 273 276 278
298 290 277 267 251 242 235 226 220 218 216 206 203 209 211 208 204 200 195 192 190 192 192 194 196 196 198 206 209 212 216 221 228 238 246 252 257 262 267 271 273 277 283
290 280 267 258 243 234 228 218 212 216 218 220 221 214 206 204 197 197 194 192 189 194 192 193 194 199 204 206 211 216 222 230 235 241 249 254 259 263 268 271 274 279 283
282 270 259 249 237 228 222 215 202 194 203 209 207 204 197 190 189 188 190 187 191 193 196 193 200 199 199 205 212 218 226 233 239 244 250 254 262 269 271 272 276 280 285
273 259 253 244 233 224 217 214 204 187 183 182 185 186 187 186 187 187 192 189 186 189 192 194 194 199 202 208 211 217 226 238 245 251 256 263 268 268 268 271 277 282 286
262 249 244 239 232 224 215 213 205 192 180 175 172 178 182 181 183 184 184 190 190 188 188 191 195 197 200 204 208 220 233 244 254 260 264 267 268 269 272 275 278 283 287
251 243 241 234 225 217 210 205 198 188 182 175 174 171 171 173 172 179 183 186 187 188 194 190 187 191 197 201 213 235 252 258 257 260 263 266 270 274 277 280 283 287 289
245 235 234 229 220 212 206 199 194 188 181 177 177 176 176 178 178 178 178 181 186 188 182 180 183 190 198 231 245 246 247 251 256 260 262 264 267 271 276 280 284 285 283
240 235 226 221 214 204 199 196 188 184 181 178 170 171 175 171 168 171 174 180 179 176 176 180 199 222 230 233 235 241 246 251 254 257 261 267 272 275 278 281 282 282 284
229 221 209 205 203 198 192 186 183 178 173 172 171 164 162 162 162 169 171 168 165 175 195 204 215 219 223 230 236 243 247 252 255 260 265 268 271 276 281 284 284 285 287
218 209 201 194 188 183 180 176 175 172 167 163 160 155 154 159 160 158 159 171 185 185 198 207 212 217 223 231 239 244 249 253 256 261 265 271 276 283 285 285 286 287 288
202 196 189 183 179 174 169 162 158 156 155 152 151 152 150 153 161 170 171 168 181 194 201 207 212 219 226 233 241 248 255 261 267 272 278 282 286 286 285 285 286 289 291
185 180 174 166 160 155 152 149 145 142 143 145 150 155 159 158 156 157 171 181 186 193 201 210 218 227 235 243 252 260 266 272 275 280 284 286 285 283 282 285 286 286 288
Wind_Speed_850mb
60 60 75 87 92 101 107 115 119 117 113 117 106 99 89 89 88 87 87 85 84 79 74 72 72 68 70 65 64 64 61 56 54 55 53 51 48 45 43 42 49 51 41
69 59 63 73 80 92 98 104 110 112 110 112 107 99 91 90 90 91 88 86 83 81 75 72 72 69 70 67 66 66 62 57 57 56 55 54 47 49 47 38 40 45 45
75 64 63 68 77 86 92 95 100 107 107 107 107 99 93 93 93 92 90 87 83 77 73 72 72 70 71 70 68 68 59 60 57 56 57 57 54 49 42 41 40 35 44
63 68 67 67 72 79 86 90 95 100 105 106 108 100 95 94 94 93 91 87 81 76 72 70 72 74 77 72 66 68 61 63 58 56 59 51 47 42 40 36 37 37 40
68 69 72 68 68 72 75 84 87 95 103 104 104 100 95 98 96 95 92 87 82 78 75 75 73 75 72 69 65 67 64 63 59 57 55 48 43 43 40 36 35 35 34
71 71 75 69 68 72 73 74 83 89 95 97 103 99 97 99 97 93 89 88 81 79 79 77 74 69 70 69 71 68 63 62 57 58 51 51 42 39 35 35 32 29 31
77 70 69 72 67 72 74 76 75 90 89 95 102 99 95 97 93 89 88 87 82 78 76 76 75 70 68 69 69 66 57 52 48 44 41 41 41 39 35 34 33 32 34
82 73 63 70 69 66 73 80 75 78 90 87 93 91 90 91 91 91 89 84 82 80 79 75 73 69 68 62 53 54 51 46 43 40 43 39 36 34 34 33 32 32 33
82 76 67 67 72 65 65 76 82 72 77 87 84 80 84 81 82 84 86 84 87 83 75 70 65 58 50 51 52 52 49 46 46 40 38 36 36 37 36 37 35 34 35
74 79 77 69 68 67 61 63 73 76 72 79 84 80 76 78 80 92 86 92 84 76 72 64 55 50 48 49 49 44 42 42 39 39 44 43 43 42 37 35 35 37 37
80 75 81 75 70 66 59 57 63 68 69 80 84 85 82 81 90 85 89 80 75 71 74 64 58 53 49 48 44 42 41 44 45 47 46 45 44 40 37 37 40 40 41
91 79 77 74 72 66 57 56 61 66 66 71 81 87 86 82 76 76 69 62 63 70 65 59 56 52 48 48 47 45 44 46 43 46 46 45 42 39 40 42 44 44 44
90 89 72 68 71 65 59 58 62 68 68 77 88 86 78 72 69 65 60 61 61 57 52 51 51 50 49 47 43 39 43 44 41 42 43 43 42 41 41 43 45 45 43
96 90 75 63 68 67 63 59 67 72 76 83 83 81 72 69 70 72 70 67 59 56 56 53 50 49 46 41 42 44 41 37 38 41 43 43 42 39 39 42 43 43 41
95 87 77 67 66 69 66 66 71 76 75 82 81 73 69 71 74 72 71 68 64 60 56 55 54 50 43 44 43 39 38 38 37 38 39 38 37 35 37 38 39 38 36
93 88 79 70 71 72 74 74 76 72 66 67 70 72 70 69 70 64 61 55 53 50 54 56 52 46 43 41 40 38 34 33 32 32 33 34 33 30 35 37 37 36 36
88 82 81 72 81 80 83 85 87 71 58 56 54 57 56 58 63 61 56 55 50 53 53 49 44 43 41 40 36 32 30 30 29 30 32 33 32 30 32 36 36 35 35
81 72 81 77 86 85 88 91 95 93 84 75 63 62 60 58 63 60 61 56 59 54 46 44 43 40 38 37 33 30 28 28 30 32 32 30 29 31 33 33 33 33 34
72 70 79 81 84 92 90 99 93 84 90 86 79 68 65 62 60 59 56 55 58 54 48 45 41 37 33 31 28 25 25 28 30 30 30 30 32 32 32 33 34 36 36
62 68 77 82 84 94 99 101 90 85 84 85 87 86 81 76 72 67 60 53 51 47 47 43 38 36 33 28 22 21 24 30 32 33 33 32 33 33 35 36 36 36 36
59 67 73 80 83 90 97 98 93 90 88 85 83 83 82 82 78 68 63 55 50 46 40 36 34 31 20 18 24 31 33 34 34 35 36 35 34 34 34 34 32 32 32
59 65 70 78 84 89 92 90 91 90 89 83 80 79 74 69 65 63 56 52 47 39 32 26 20 18 20 27 29 30 31 32 33 33 33 31 31 31 31 31 30 31 32
59 65 70 77 82 86 84 84 84 84 83 86 84 76 68 64 59 55 54 47 39 31 25 20 23 26 27 27 26 27 28 29 29 29 30 30 30 29 28 30 31 30 31
57 64 71 74 78 81 85 86 85 84 82 78 74 71 65 60 58 51 44 39 30 23 26 28 27 25 24 22 23 24 26 28 29 28 29 29 29 28 28 29 30 30 29
53 62 68 71 74 76 75 74 76 77 76 71 67 66 61 55 52 42 32 27 28 29 27 25 22 20 19 21 23 25 27 27 28 29 29 29 28 28 29 29 29 28 28
54 60 63 65 69 74 79 84 80 73 69 65 61 56 48 41 35 31 32 31 27 25 23 20 19 20 20 23 23 24 26 27 28 29 28 28 27 28 28 27 28 28 26
Wind_Direction_850mb
311 293 270 263 261 256 249 246 250 253 251 250 249 244 237 236 236 233 230 232 234 235 235 232 235 240 248 251 252 254 255 258 258 265 268 269 267 268 260 264 257 252 251
323 301 284 268 261 257 250 244 247 251 250 249 249 244 238 235 235 232 229 229 231 231 230 230 237 238 247 249 249 252 254 259 258 259 261 267 268 265 258 262 252 252 248
320 316 298 277 264 257 257 249 246 248 248 246 245 242 236 233 234 231 228 228 230 229 228 233 236 241 243 248 253 257 256 248 252 251 262 261 259 257 246 257 248 254 254
312 311 304 291 274 265 261 258 251 246 246 245 244 240 234 232 232 230 227 225 224 226 230 232 238 242 245 252 249 253 250 246 248 252 262 251 253 246 245 240 243 254 260
308 304 305 298 280 268 260 257 251 245 244 244 243 239 233 231 231 228 225 224 221 224 228 233 241 241 245 247 247 245 244 247 248 249 251 239 242 248 241 251 253 252 252
306 302 305 297 283 266 255 248 248 244 243 242 240 236 232 230 230 229 225 220 222 226 229 234 238 239 243 244 241 241 243 248 246 244 240 233 244 242 246 253 249 244 260
303 298 298 299 283 270 258 246 245 243 241 242 241 238 231 228 228 226 222 221 225 228 232 235 240 239 239 239 236 242 236 230 232 238 236 240 244 246 247 242 244 255 266
301 300 293 295 284 272 259 248 245 242 242 243 246 243 231 228 225 223 220 223 226 227 231 234 243 243 239 237 219 216 217 220 224 232 233 235 243 242 237 243 251 260 269
303 304 291 289 285 269 261 250 245 241 242 241 241 236 232 227 225 224 220 226 220 225 226 228 237 231 221 210 210 212 220 224 224 227 237 240 238 235 238 247 252 261 271
313 297 302 288 279 267 260 248 246 245 241 242 238 227 229 225 226 221 222 218 219 222 217 223 217 213 214 214 209 212 215 218 226 239 238 233 232 235 242 251 261 266 274
312 294 295 292 275 264 256 245 239 240 236 239 233 223 216 221 221 219 220 219 221 224 219 212 204 207 206 202 201 211 220 227 229 230 229 230 234 240 249 259 267 272 277
315 293 293 288 273 260 250 244 232 225 222 223 226 214 206 208 211 214 215 220 215 217 211 203 202 200 200 205 209 213 220 224 223 226 229 234 242 249 257 264 270 274 278
307 299 291 286 269 255 246 237 227 219 215 213 209 208 201 196 198 203 209 203 204 206 204 199 196 199 201 205 208 214 219 222 223 229 236 242 248 256 263 268 272 275 277
302 298 286 278 260 247 239 232 227 218 209 204 201 197 198 199 200 200 196 197 195 189 190 192 196 199 202 205 212 213 216 221 227 235 241 248 253 260 267 270 273 276 278
298 290 277 267 251 242 235 226 220 218 216 206 203 209 211 208 204 200 195 192 190 192 192 194 196 196 198 206 209 212 216 221 228 238 246 252 257 262 267 271 273 277 283
290 280 267 258 243 234 228 218 212 216 218 220 221 214 206 204 197 197 194 192 189 194 192 193 194 199 204 206 211 216 222 230 235 241 249 254 259 263 268 271 274 279 283
282 270 259 249 237 228 222 215 202 194 203 209 207 204 197 190 189 188 190 187 191 193 196 193 200 199 199 205 212 218 226 233 239 244 250 254 262 269 271 272 276 280 285
273 259 253 244 233 224 217 214 204 187 183 182 185 186 187 186 187 187 192 189 186 189 192 194 194 199 202 208 211 217 226 238 245 251 256 263 268 268 268 271 277 282 286
262 249 244 239 232 224 215 213 205 192 180 175 172 178 182 181 183 184 184 190 190 188 188 191 195 197 200 204 208 220 233 244 254 260 264 267 268 269 272 275 278 283 287
251 243 241 234 225 217 210 205 198 188 182 175 174 171 171 173 172 179 183 186 187 188 194 190 187 191 197 201 213 235 252 258 257 260 263 266 270 274 277 280 283 287 289
245 235 234 229 220 212 206 199 194 188 181 177 177 176 176 178 178 178 178 181 186 188 182 180 183 190 198 231 245 246 247 251 256 260 262 264 267 271 276 280 284 285 283
240 235 226 221 214 204 199 196 188 184 181 178 170 171 175 171 168 171 174 180 179 176 176 180 199 222 230 233 235 241 246 251 254 257 261 267 272 275 278 281 282 282 284
229 221 209 205 203 198 192 186 183 178 173 172 171 164 162 162 162 169 171 168 165 175 195 204 215 219 223 230 236 243 247 252 255 260 265 268 271 276 281 284 284 285 287
218 209 201 194 188 183 180 176 175 172 167 163 160 155 154 159 160 158 159 171 185 185 198 207 212 217 223 231 239 244 249 253 256 261 265 271 276 283 285 285 286 287 288
202 196 189 183 179 174 169 162 158 156 155 152 151 152 150 153 161 170 171 168 181 194 201 207 212 219 226 233 241 248 255 261 267 272 278 282 286 286 285 285 286 289 291
185 180 174 166 160 155 152 149 145 142 143 145 150 155 159 158 156 157 171 181 186 193 201 210 218 227 235 243 252 260 266 272 275 280 284 286 285 283 282 285 286 286 288